Lid_Strength_Index
11 10 11 9 8 7 5 4 0 -0 -0 0 0 1 1 0 0 1 1 0 1 0 0 0 0 -0 0 -0 -0 0 1 1 3 2 0 -0 -0 -0 -1 -1 0 1 1
12 11 10 10 9 9 8 6 5 4 3 -0 -0 0 1 0 0 1 1 1 1 1 1 1 1 0 0 -0 0 0 1 0 2 3 1 1 0 0 -0 -0 -1 -1 -1
10 10 9 9 9 9 8 6 6 5 5 3 2 1 1 0 0 0 0 0 1 1 1 1 1 0 1 1 1 1 1 1 1 2 2 0 0 -0 0 -0 -0 -1 -1
11 10 9 8 7 7 7 6 5 5 5 5 4 3 3 0 0 0 0 1 1 0 0 0 0 1 1 1 1 1 1 1 1 2 2 2 1 0 1 2 2 0 0
11 10 9 7 6 5 5 5 4 4 4 4 3 2 2 3 3 3 0 1 1 1 0 0 0 1 4 3 1 1 1 2 2 2 3 3 3 2 3 1 3 2 1
10 10 9 7 6 5 5 5 4 4 4 4 3 3 2 2 13 11 10 4 1 1 1 1 0 4 4 8 8 8 4 1 2 3 3 3 3 2 1 2 2 3 4
10 9 9 7 6 6 5 5 4 4 3 3 3 3 3 4 12 12 12 4 2 1 1 1 1 0 3 0 5 9 9 10 9 2 3 2 2 2 1 2 2 2 3
10 9 8 7 6 6 5 6 5 4 4 3 2 2 2 7 11 11 11 2 -0 -0 0 0 1 0 9 8 6 2 0 0 1 3 4 2 0 -0 0 1 1 2 1
10 9 9 8 7 6 5 5 5 5 4 3 3 3 4 7 11 11 8 -0 0 0 1 4 5 6 11 11 6 5 4 2 4 7 8 9 9 9 7 3 4 3 4
10 10 9 9 9 8 8 7 6 5 5 6 7 7 9 7 11 11 9 2 1 1 1 4 11 10 11 11 8 7 8 7 7 6 4 3 4 3 8 5 3 4 4
10 10 10 10 10 9 9 9 8 8 8 8 9 9 8 10 9 11 11 5 6 4 4 6 6 11 11 10 10 6 10 9 8 5 4 4 3 2 2 2 2 2 3
10 10 10 11 11 11 11 11 11 10 11 10 10 10 10 9 11 10 10 11 10 4 5 6 7 10 10 10 9 12 11 10 6 6 6 6 6 6 5 4 3 2 2
11 11 11 10 10 12 12 11 12 11 11 11 11 10 10 9 8 10 10 10 10 6 6 9 10 10 10 9 11 11 10 6 7 7 8 8 8 7 7 6 6 5 4
11 12 11 10 10 10 10 12 13 12 12 12 12 12 11 12 11 9 8 6 9 7 8 6 9 10 11 9 7 7 7 8 8 9 9 9 8 8 8 7 8 8 8
10 10 9 10 10 10 11 10 11 12 12 13 12 11 11 12 13 12 11 9 8 8 7 5 6 7 7 7 7 7 7 7 8 8 8 8 8 8 9 8 8 9 10
9 9 9 9 9 9 9 11 13 13 13 13 12 11 9 12 12 12 11 11 11 10 6 7 7 7 8 8 8 8 8 8 8 7 8 8 8 8 8 8 7 8 10
9 9 9 9 8 8 8 8 8 11 12 12 12 12 12 13 12 12 12 11 11 10 8 8 8 8 9 8 9 9 9 8 7 7 7 8 8 8 8 9 8 8 8
9 12 8 8 8 8 8 8 8 8 8 8 12 11 13 13 13 12 12 10 8 9 9 9 9 9 8 9 9 8 8 8 7 7 7 7 7 8 8 9 8 8 7
9 8 8 8 9 9 8 8 8 9 9 9 8 10 11 12 13 12 11 9 10 10 10 10 10 10 10 11 10 10 9 8 7 7 7 7 7 7 8 7 7 7 7
9 12 11 8 8 8 8 9 9 9 9 9 9 10 10 9 10 10 10 10 10 10 10 10 10 10 10 10 10 9 8 8 8 8 7 7 7 6 7 7 7 7 6
7 8 13 8 9 9 9 9 9 9 9 9 9 10 14 11 10 10 10 10 10 10 10 10 10 9 9 9 8 8 8 7 7 7 8 7 7 7 6 6 6 6 6
8 8 9 9 9 9 9 9 9 9 10 10 9 10 13 10 9 9 10 9 9 9 9 9 9 9 8 8 8 8 8 8 7 7 6 6 5 5 5 6 6 6 6
9 9 9 8 9 11 10 9 9 9 9 10 9 10 10 10 10 10 10 10 9 9 9 9 9 9 8 8 8 8 8 8 8 7 7 6 6 6 5 6 6 6 6
9 10 10 9 9 9 9 9 9 11 11 11 10 10 10 10 10 10 10 10 10 10 9 10 9 9 9 9 8 8 8 8 8 7 7 6 6 6 6 7 6 6 6
9 9 9 10 10 10 10 11 10 10 10 10 10 10 10 9 10 9 10 10 11 11 10 10 10 10 10 10 10 9 10 12 10 10 7 6 7 7 7 7 7 7 7
8 8 9 9 9 10 10 10 10 10 10 10 10 10 10 10 10 9 10 10 11 11 11 11 10 10 10 10 10 11 12 12 11 11 9 7 7 7 7 7 8 8 7